Location: Unspecified
(22.6800°N, 112.2000°E)
Time: 11:17:32
(UTC+08:00)

S-56A Canister/Altair - Pass Details

Date: 29 July 2021
Orbit: 632 x 2500 km, 38.9° (Epoch: 21 September)

Event Time Altitude Azimuth Distance (km) Brightness Sun altitude
Rises 23:48:06 0° 299° (WNW) 5,652 12.4 -46.8°
Reaches altitude 10° 23:52:21 10° 295° (WNW) 4,393 11.7 -47.0°
Enters shadow 23:57:54 29° 281° (W) 2,788 10.4 -47.4°
Maximum altitude 00:03:02 49° 225° (SW) 1,820 - -47.6°
Drops below altitude 10° 00:10:10 10° 152° (SSE) 2,967 - -48.0°
Sets 00:12:31 0° 146° (SE) 3,719 - -48.0°
